Zurück zum Katalog

FENGYUN 1C DEB

AktivSSO
NORAD 31002·DEBRIS·🇨🇳 China

Gestartet May 10, 1999 von Taiyuan Satellite Launch Center

Loading…

Nächste Überflüge (nächste 24 Stunden)

TLE

AktuellSource: Space-Track

Epoche: Sep 13, 2026, 12:53 UTC

1 31002U 99025BCU 26256.53699269  .00000179  00000-0  14677-3 0  9996
2 31002  98.8808 265.3027 0098061 306.2282 206.4372 13.99437025994482

Verfolge FENGYUN 1C DEB in Echtzeit mit AllMySat

Download on the App Store